Mukilteo, WA

9:45 AM PST on December 09, 2016 (GMT -0800)
Snohomish County

Weather History for KPAE - December, 2011

Change the Weather History Date:

Thursday, December 1, 2011

  Actual Average Record
Temperature  
Mean Temperature 34 °F -  
Max Temperature 39 °F 45 °F 55 °F (1964)
Min Temperature 30 °F 35 °F 23 °F (1983)
Degree Days  
Heating Degree Days 30    
Moisture  
Dew Point 33 °F    
Average Humidity 90    
Maximum Humidity 100    
Minimum Humidity 81    
Precipitation  
Precipitation 0.02 in - - ()
Sea Level Pressure  
Sea Level Pressure 30.67 in    
Wind  
Wind Speed 3 mph (SE)    
Max Wind Speed 8 mph    
Max Gust Speed -    
Visibility 5 miles    
Events Fog , Rain    
Averages and records for this station are not official NWS values.
T = Trace of Precipitation, MM = Missing Value Source: NWS Daily Summary

Daily Weather History Graph

Daily Weather History Graph

Search for Another Location

Airport or City:

Trip Planner

Search our weather history database for the weather conditions in past years. The results will help you decide how hot, cold, wet, or windy it might be!

Date:

Astronomy

Dec. 01, 2011 Rise Set
Actual Time 7:37 AM PST 4:18 PM PST
Civil Twilight 7:01 AM PST 4:54 PM PST
Nautical Twilight 6:23 AM PST 5:32 PM PST
Astronomical Twilight 5:45 AM PST 6:10 PM PST
Moon 12:05 PM PST (12/1) 11:44 PM PST (12/1)
Length of Visible Light 9h 52m
Length of Day
8h 41m
Waxing Crescent, 44% of the Moon is Illuminated
Dec 1
Waxing Crescent
Dec 2
First Quarter
Dec 10
Full
Dec 17
Last Quarter
Dec 24
New

Hourly Weather History & Observations

Time (PST) Temp. Windchill Dew Point Humidity Pressure Visibility Wind Dir Wind Speed Gust Speed Precip Events Conditions
12:28 AM 37.4 °F 33.8 °F 35.6 °F 93% 30.79 in 6.0 mi NE 4.6 mph - N/A   Mostly Cloudy
12:53 AM 37.9 °F 35.5 °F 35.1 °F 89% 30.79 in 5.0 mi NNE 3.5 mph - N/A   Partly Cloudy
1:53 AM 36.0 °F - 33.1 °F 89% 30.79 in 10.0 mi Calm Calm - N/A   Clear
2:53 AM 33.1 °F 27.7 °F 30.9 °F 92% 30.78 in 3.0 mi ESE 5.8 mph - N/A   Partly Cloudy
2:57 AM 33.8 °F 28.6 °F 30.2 °F 87% 30.76 in 1.8 mi ESE 5.8 mph - N/A   Scattered Clouds
3:04 AM 33.8 °F - 30.2 °F 87% 30.76 in 0.8 mi Calm Calm - N/A   Mist
3:13 AM 33.8 °F - 32.0 °F 93% 30.76 in 1.0 mi Calm Calm - N/A   Mist
3:21 AM 32.0 °F - 30.2 °F 93% 30.76 in 0.8 mi Calm Calm - N/A   Mist
3:41 AM 32.0 °F - 30.2 °F 93% 30.76 in 2.0 mi Calm Calm - N/A   Mostly Cloudy
3:45 AM 32.0 °F - 30.2 °F 93% 30.76 in 4.0 mi Calm Calm - N/A   Scattered Clouds
3:53 AM 32.0 °F - 30.0 °F 92% 30.79 in 4.0 mi Calm Calm - N/A   Scattered Clouds
4:14 AM 33.8 °F 29.6 °F 30.2 °F 87% 30.77 in 1.5 mi North 4.6 mph - N/A   Scattered Clouds
4:16 AM 33.8 °F 28.6 °F 32.0 °F 93% 30.77 in 0.8 mi North 5.8 mph - N/A   Mist
4:23 AM 33.8 °F 30.8 °F 32.0 °F 93% 30.77 in 0.2 mi North 3.5 mph - N/A Fog Fog
4:53 AM 34.0 °F 31.0 °F 33.1 °F 96% 30.78 in 0.2 mi North 3.5 mph - N/A Fog Fog
5:14 AM 33.8 °F - 33.8 °F 100% 30.75 in 0.5 mi Calm Calm - N/A Fog Fog
5:21 AM 33.8 °F - 33.8 °F 100% 30.75 in 1.2 mi Calm Calm - N/A   Mostly Cloudy
5:32 AM 33.8 °F - 32.0 °F 93% 30.75 in 0.5 mi Calm Calm - N/A Fog Fog
5:50 AM 33.8 °F - 30.2 °F 87% 30.75 in 1.8 mi Calm Calm - N/A   Overcast
5:53 AM 33.1 °F - 30.9 °F 92% 30.77 in 2.0 mi Calm Calm - N/A   Overcast
6:07 AM 33.8 °F - 30.2 °F 87% 30.75 in 3.0 mi Calm Calm - N/A   Mostly Cloudy
6:11 AM 33.8 °F 30.8 °F 30.2 °F 87% 30.76 in 2.5 mi ESE 3.5 mph - N/A   Scattered Clouds
6:22 AM 32.0 °F 27.5 °F 30.2 °F 93% 30.75 in 3.0 mi ESE 4.6 mph - N/A   Scattered Clouds
6:30 AM 32.0 °F - 30.2 °F 93% 30.75 in 2.5 mi Calm Calm - N/A   Scattered Clouds
6:38 AM 33.8 °F - 30.2 °F 87% 30.74 in 6.0 mi Calm Calm - N/A   Partly Cloudy
6:53 AM 33.1 °F - 30.0 °F 89% 30.76 in 10.0 mi Calm Calm - N/A   Clear
7:53 AM 30.2 °F - 28.4 °F 93% 30.74 in 10.0 mi Calm Calm - N/A   Clear
8:53 AM 34.0 °F - 30.9 °F 89% 30.74 in 10.0 mi Calm Calm - N/A   Partly Cloudy
9:01 AM 33.8 °F - 30.2 °F 87% 30.72 in 10.0 mi Calm Calm - N/A   Partly Cloudy
9:21 AM 35.6 °F - 33.8 °F 93% 30.72 in 1.0 mi Calm Calm - N/A   Mostly Cloudy
9:53 AM 35.1 °F 31.0 °F 32.0 °F 89% 30.72 in 10.0 mi South 4.6 mph - N/A   Partly Cloudy
10:53 AM 39.0 °F 36.8 °F 35.1 °F 86% 30.70 in 6.0 mi SSW 3.5 mph - N/A   Clear
11:23 AM 39.2 °F 35.9 °F 33.8 °F 81% 30.66 in 10.0 mi South 4.6 mph - N/A   Scattered Clouds
11:53 AM 37.4 °F 34.9 °F 33.8 °F 87% 30.65 in 9.0 mi WSW 3.5 mph - N/A   Partly Cloudy
12:01 PM 37.4 °F 33.8 °F 33.8 °F 87% 30.65 in 2.5 mi West 4.6 mph - N/A   Mostly Cloudy
12:10 PM 37.4 °F - 35.6 °F 93% 30.64 in 8.0 mi Calm Calm - N/A   Mostly Cloudy
12:21 PM 37.4 °F - 33.8 °F 87% 30.63 in 8.0 mi Calm Calm - N/A   Scattered Clouds
12:53 PM 37.4 °F - 35.6 °F 93% 30.62 in 8.0 mi Calm Calm - N/A   Scattered Clouds
1:53 PM 39.9 °F 37.8 °F 35.1 °F 83% 30.61 in 10.0 mi South 3.5 mph - N/A   Scattered Clouds
2:46 PM 37.4 °F - 35.6 °F 93% 30.58 in 8.0 mi Calm Calm - N/A   Mostly Cloudy
2:53 PM 37.9 °F 35.5 °F 35.1 °F 89% 30.60 in 9.0 mi West 3.5 mph - N/A   Mostly Cloudy
3:53 PM 37.0 °F 31.6 °F 33.1 °F 86% 30.56 in 5.0 mi South 6.9 mph - N/A   Overcast
4:53 PM 37.0 °F 33.3 °F 34.0 °F 89% 30.51 in 7.0 mi South 4.6 mph - N/A   Mostly Cloudy
5:53 PM 37.0 °F - 34.0 °F 89% 30.50 in 7.0 mi Calm Calm - N/A   Mostly Cloudy
6:53 PM 37.9 °F 35.5 °F 35.1 °F 89% 30.50 in 7.0 mi North 3.5 mph - N/A   Mostly Cloudy
7:26 PM 37.4 °F 34.9 °F 35.6 °F 93% 30.48 in 7.0 mi ENE 3.5 mph - N/A   Mostly Cloudy
7:53 PM 37.9 °F 33.5 °F 35.1 °F 89% 30.46 in 7.0 mi ESE 5.8 mph - N/A   Overcast
8:22 PM 37.4 °F 33.8 °F 33.8 °F 87% 30.43 in 2.0 mi Variable 4.6 mph - N/A   Overcast
8:53 PM 37.0 °F 31.0 °F 34.0 °F 89% 30.45 in 2.0 mi ESE 8.1 mph - N/A   Overcast
9:00 PM 37.4 °F 31.4 °F 33.8 °F 87% 30.44 in 6.0 mi ESE 8.1 mph - N/A   Overcast
9:53 PM 39.0 °F - 34.0 °F 82% 30.46 in 10.0 mi Calm Calm - N/A   Overcast
10:53 PM 37.9 °F 34.4 °F 35.1 °F 89% 30.47 in 5.0 mi SSW 4.6 mph - 0.01 in Rain Light Rain
11:53 PM 37.9 °F 32.7 °F 35.1 °F 89% 30.45 in 9.0 mi South 6.9 mph - 0.01 in   Overcast